When you browse on this site, cookies collect data to enhance your experience and personalize the content and advertising you see.
Visit our Privacy Policy to learn more. By continuing to use the site, you agree to this use of cookies and data.
EN

Hourly Weather Abercanaid

Today, 16 July, Thursday

Time Temperature Precipitation Wind Pressure Humidity
00:00 +12°C° 0 mm 2 mps 739 mmHg 96%
01:00 +12°C° 0 mm 2 mps 739 mmHg 96%
02:00 +12°C° 0 mm 2 mps 739 mmHg 96%
03:00 +12°C° 0 mm 2 mps 739 mmHg 96%
04:00 +12°C° 0 mm 2 mps 740 mmHg 96%
05:00 +13°C° 0 mm 2 mps 740 mmHg 95%
06:00 +12°C° 0 mm 3 mps 740 mmHg 94%
07:00 +14°C° 0 mm 3 mps 740 mmHg 91%
08:00 +16°C° 0 mm 3 mps 741 mmHg 87%
09:00 +17°C° 0 mm 4 mps 741 mmHg 84%
10:00 +17°C° 0 mm 4 mps 741 mmHg 83%
11:00 +18°C° 0 mm 4 mps 741 mmHg 82%
12:00 +18°C° 0 mm 4 mps 741 mmHg 81%
13:00 +19°C° 0 mm 4 mps 741 mmHg 81%
14:00 +19°C° 0 mm 4 mps 741 mmHg 80%
15:00 +19°C° 0 mm 4 mps 741 mmHg 80%
16:00 +19°C° 0 mm 4 mps 741 mmHg 82%
17:00 +19°C° 0 mm 4 mps 741 mmHg 83%
18:00 +19°C° 0 mm 4 mps 741 mmHg 85%
19:00 +17°C° 0 mm 3 mps 741 mmHg 88%
20:00 +16°C° 0 mm 2 mps 741 mmHg 91%
21:00 +14°C° 0 mm 2 mps 741 mmHg 95%
22:00 +14°C° 0 mm 2 mps 741 mmHg 95%
23:00 +14°C° 0 mm 1 mps 741 mmHg 96%

Tomorrow, 17 July, Friday

Time Temperature Precipitation Wind Pressure Humidity
00:00 +13°C° 0 mm 1 mps 741 mmHg 96%
01:00 +13°C° 0 mm 1 mps 741 mmHg 97%
02:00 +13°C° 0 mm 1 mps 741 mmHg 97%
03:00 +13°C° 0 mm 1 mps 741 mmHg 97%
04:00 +14°C° 0 mm 2 mps 741 mmHg 97%
05:00 +14°C° 0 mm 2 mps 741 mmHg 96%
06:00 +15°C° 0 mm 2 mps 741 mmHg 95%
07:00 +15°C° 0 mm 2 mps 741 mmHg 94%
08:00 +16°C° 0 mm 3 mps 741 mmHg 92%
09:00 +16°C° 0 mm 3 mps 741 mmHg 90%
10:00 +17°C° 0 mm 3 mps 741 mmHg 88%
11:00 +17°C° 0 mm 4 mps 741 mmHg 86%
12:00 +18°C° 0 mm 4 mps 741 mmHg 83%
13:00 +17°C° 0 mm 5 mps 741 mmHg 83%
14:00 +17°C° 0 mm 5 mps 741 mmHg 82%
15:00 +17°C° 0 mm 6 mps 740 mmHg 81%
16:00 +17°C° 0 mm 5 mps 740 mmHg 83%
17:00 +16°C° 0 mm 5 mps 740 mmHg 84%
18:00 +16°C° 0 mm 5 mps 740 mmHg 86%
19:00 +15°C° 0 mm 4 mps 740 mmHg 89%
20:00 +14°C° 0 mm 4 mps 740 mmHg 93%
21:00 +13°C° 0 mm 3 mps 740 mmHg 96%
22:00 +13°C° 0 mm 3 mps 740 mmHg 97%
23:00 +13°C° 0 mm 3 mps 739 mmHg 97%

Day after tomorrow, 18 July, Saturday

Time Temperature Precipitation Wind Pressure Humidity
00:00 +13°C° 0 mm 3 mps 739 mmHg 97%
01:00 +13°C° 0 mm 3 mps 739 mmHg 96%
02:00 +13°C° 0 mm 3 mps 739 mmHg 96%
03:00 +14°C° 0 mm 4 mps 738 mmHg 95%
04:00 +14°C° 0 mm 4 mps 738 mmHg 95%
05:00 +14°C° 0 mm 4 mps 738 mmHg 95%
06:00 +14°C° 0 mm 4 mps 738 mmHg 95%
07:00 +14°C° 0.2 mm 4 mps 738 mmHg 95%
08:00 +14°C° 0.2 mm 4 mps 738 mmHg 95%
09:00 +15°C° 0.2 mm 4 mps 738 mmHg 95%
10:00 +15°C° 0.1 mm 4 mps 738 mmHg 94%
11:00 +15°C° 0.1 mm 4 mps 738 mmHg 92%
12:00 +17°C° 0.1 mm 3 mps 739 mmHg 91%
13:00 +17°C° 0.1 mm 3 mps 738 mmHg 88%
14:00 +18°C° 0.1 mm 3 mps 738 mmHg 85%
15:00 +18°C° 0.1 mm 3 mps 738 mmHg 82%
16:00 +17°C° 0.3 mm 3 mps 738 mmHg 86%
17:00 +16°C° 0.3 mm 3 mps 738 mmHg 90%
18:00 +15°C° 0.3 mm 2 mps 737 mmHg 94%
19:00 +15°C° 0.3 mm 2 mps 737 mmHg 94%
20:00 +14°C° 0.3 mm 1 mps 738 mmHg 95%
21:00 +13°C° 0.3 mm 1 mps 738 mmHg 96%
22:00 +13°C° 0 mm 1 mps 738 mmHg 94%
23:00 +12°C° 0 mm 2 mps 737 mmHg 93%

19 July, Sunday

Time Temperature Precipitation Wind Pressure Humidity
00:00 +12°C° 0 mm 2 mps 737 mmHg 91%
01:00 +10°C° 0.2 mm 2 mps 737 mmHg 92%
02:00 +9°C° 0.2 mm 2 mps 737 mmHg 92%
03:00 +10°C° 0.2 mm 1 mps 737 mmHg 92%
04:00 +10°C° 0 mm 1 mps 737 mmHg 92%
05:00 +10°C° 0 mm 1 mps 738 mmHg 92%
06:00 +10°C° 0 mm 1 mps 738 mmHg 91%
07:00 +12°C° 0 mm 1 mps 738 mmHg 85%
08:00 +13°C° 0 mm 1 mps 738 mmHg 79%
09:00 +15°C° 0 mm 2 mps 739 mmHg 72%
10:00 +15°C° 0.1 mm 2 mps 739 mmHg 73%
11:00 +15°C° 0.1 mm 2 mps 739 mmHg 73%
12:00 +16°C° 0.1 mm 3 mps 739 mmHg 74%
13:00 +16°C° 0.2 mm 3 mps 739 mmHg 73%
14:00 +15°C° 0.2 mm 4 mps 739 mmHg 72%
15:00 +15°C° 0.2 mm 4 mps 739 mmHg 72%
16:00 +14°C° 0.1 mm 5 mps 739 mmHg 72%
17:00 +14°C° 0.1 mm 5 mps 739 mmHg 73%
18:00 +13°C° 0.1 mm 5 mps 739 mmHg 74%
19:00 +12°C° 0 mm 4 mps 740 mmHg 79%
20:00 +10°C° 0 mm 4 mps 740 mmHg 83%
21:00 +8°C° 0 mm 3 mps 740 mmHg 88%
22:00 +8°C° 0 mm 3 mps 740 mmHg 89%
23:00 +7°C° 0 mm 2 mps 740 mmHg 89%

20 July, Monday

Time Temperature Precipitation Wind Pressure Humidity
00:00 +7°C° 0 mm 2 mps 741 mmHg 90%
01:00 +7°C° 0 mm 2 mps 741 mmHg 90%
02:00 +6°C° 0 mm 2 mps 741 mmHg 91%
03:00 +6°C° 0 mm 2 mps 741 mmHg 91%
04:00 +7°C° 0 mm 2 mps 741 mmHg 91%
05:00 +8°C° 0 mm 2 mps 741 mmHg 90%
06:00 +8°C° 0 mm 2 mps 741 mmHg 89%
07:00 +10°C° 0 mm 3 mps 742 mmHg 83%
08:00 +11°C° 0 mm 3 mps 742 mmHg 77%
09:00 +13°C° 0 mm 4 mps 742 mmHg 71%
10:00 +14°C° 0 mm 4 mps 742 mmHg 68%
11:00 +14°C° 0 mm 4 mps 742 mmHg 66%
12:00 +15°C° 0 mm 4 mps 742 mmHg 63%
13:00 +15°C° 0.1 mm 4 mps 742 mmHg 64%
14:00 +15°C° 0.1 mm 5 mps 742 mmHg 66%
15:00 +15°C° 0.1 mm 5 mps 742 mmHg 67%
16:00 +14°C° 0 mm 5 mps 742 mmHg 68%
17:00 +13°C° 0 mm 5 mps 742 mmHg 69%
18:00 +13°C° 0 mm 5 mps 742 mmHg 71%
19:00 +11°C° 0 mm 4 mps 742 mmHg 78%
20:00 +9°C° 0 mm 3 mps 742 mmHg 84%
21:00 +8°C° 0 mm 2 mps 742 mmHg 91%
22:00 +7°C° 0 mm 2 mps 742 mmHg 91%
23:00 +7°C° 0 mm 2 mps 742 mmHg 92%

21 July, Tuesday

Time Temperature Precipitation Wind Pressure Humidity
00:00 +8°C° 0 mm 1 mps 742 mmHg 92%
01:00 +8°C° 0 mm 1 mps 742 mmHg 92%
02:00 +8°C° 0 mm 1 mps 742 mmHg 91%
03:00 +7°C° 0 mm 1 mps 742 mmHg 91%
04:00 +8°C° 0 mm 1 mps 742 mmHg 90%
05:00 +9°C° 0 mm 1 mps 742 mmHg 88%
06:00 +10°C° 0 mm 1 mps 743 mmHg 87%
07:00 +12°C° 0 mm 1 mps 743 mmHg 81%
08:00 +13°C° 0 mm 1 mps 743 mmHg 76%
09:00 +15°C° 0 mm 2 mps 744 mmHg 70%
10:00 +15°C° 0.1 mm 2 mps 744 mmHg 69%
11:00 +16°C° 0.1 mm 2 mps 744 mmHg 69%
12:00 +16°C° 0.1 mm 2 mps 744 mmHg 69%
13:00 +16°C° 0.1 mm 3 mps 743 mmHg 69%
14:00 +16°C° 0.1 mm 3 mps 743 mmHg 69%
15:00 +17°C° 0.1 mm 3 mps 743 mmHg 69%
16:00 +16°C° 0 mm 3 mps 743 mmHg 71%
17:00 +16°C° 0 mm 3 mps 743 mmHg 73%
18:00 +14°C° 0 mm 3 mps 743 mmHg 75%
19:00 +12°C° 0 mm 3 mps 743 mmHg 80%
20:00 +10°C° 0 mm 2 mps 743 mmHg 84%
21:00 +8°C° 0 mm 2 mps 743 mmHg 89%
22:00 +8°C° 0 mm 2 mps 743 mmHg 88%
23:00 +7°C° 0 mm 2 mps 743 mmHg 88%
Show more